Time,TemperatureF,DewpointF,PressureIn,WindDirection,WindDirectionDegrees,WindSpeedMPH,WindSpeedGustMPH,Humidity,HourlyPrecipIn,Conditions,Clouds,dailyrainin,SoftwareType,DateUTC
2013-07-16 00:02:00,79.0,69.0,30.10,SE,127,0.0,3.0,72,0.00,,,0.00,weatherlink.com 1.10,2013-07-16 05:02:00,
2013-07-16 00:17:00,79.0,69.0,30.10,SE,138,0.0,3.0,72,0.00,,,0.00,weatherlink.com 1.10,2013-07-16 05:17:00,
2013-07-16 00:32:00,78.1,69.0,30.10,SE,138,0.0,0.0,73,0.00,,,0.00,weatherlink.com 1.10,2013-07-16 05:32:00,
2013-07-16 00:47:00,77.2,69.0,30.10,WSW,252,0.0,0.0,75,0.00,,,0.00,weatherlink.com 1.10,2013-07-16 05:47:00,
2013-07-16 01:02:00,77.0,69.0,30.11,WSW,252,0.0,1.0,77,0.00,,,0.00,weatherlink.com 1.10,2013-07-16 06:02:00,
2013-07-16 01:17:00,77.0,69.0,30.11,SE,141,0.0,1.0,77,0.00,,,0.00,weatherlink.com 1.10,2013-07-16 06:17:00,
2013-07-16 01:32:00,77.1,69.0,30.11,ESE,108,0.0,1.0,77,0.00,,,0.00,weatherlink.com 1.10,2013-07-16 06:32:00,
2013-07-16 01:47:00,77.2,70.0,30.11,ESE,117,0.0,1.0,78,0.00,,,0.00,weatherlink.com 1.10,2013-07-16 06:47:00,
2013-07-16 02:02:00,77.2,70.0,30.10,SE,139,0.0,2.0,78,0.00,,,0.00,weatherlink.com 1.10,2013-07-16 07:02:00,
2013-07-16 02:17:00,76.8,70.0,30.10,SSE,158,0.0,1.0,79,0.00,,,0.00,weatherlink.com 1.10,2013-07-16 07:17:00,
2013-07-16 02:32:00,76.2,70.0,30.10,ENE,57,1.0,3.0,81,0.00,,,0.00,weatherlink.com 1.10,2013-07-16 07:32:00,
2013-07-16 02:47:00,76.1,70.0,30.11,NNE,30,1.0,6.0,81,0.00,,,0.00,weatherlink.com 1.10,2013-07-16 07:47:00,
2013-07-16 03:02:00,75.6,70.0,30.10,East,88,0.0,1.0,82,0.00,,,0.00,weatherlink.com 1.10,2013-07-16 08:02:00,
2013-07-16 03:17:00,75.1,70.0,30.10,ESE,110,0.0,1.0,83,0.00,,,0.00,weatherlink.com 1.10,2013-07-16 08:17:00,
2013-07-16 03:32:00,74.9,70.0,30.10,SSE,153,1.0,2.0,84,0.00,,,0.00,weatherlink.com 1.10,2013-07-16 08:32:00,
2013-07-16 03:47:00,74.8,70.0,30.11,SE,143,0.0,2.0,84,0.00,,,0.00,weatherlink.com 1.10,2013-07-16 08:47:00,
2013-07-16 04:02:00,74.5,70.0,30.11,SE,141,0.0,2.0,85,0.00,,,0.00,weatherlink.com 1.10,2013-07-16 09:02:00,
2013-07-16 04:17:00,74.0,70.0,30.11,SSE,160,0.0,1.0,86,0.00,,,0.00,weatherlink.com 1.10,2013-07-16 09:17:00,
2013-07-16 04:32:00,73.5,70.0,30.11,SE,129,0.0,0.0,87,0.00,,,0.00,weatherlink.com 1.10,2013-07-16 09:32:00,
2013-07-16 04:47:00,72.9,69.0,30.11,SE,127,0.0,1.0,88,0.00,,,0.00,weatherlink.com 1.10,2013-07-16 09:47:00,
2013-07-16 05:02:00,72.4,69.0,30.12,SE,127,0.0,0.0,89,0.00,,,0.00,weatherlink.com 1.10,2013-07-16 10:02:00,
2013-07-16 05:17:00,72.1,69.0,30.12,SE,139,0.0,1.0,90,0.00,,,0.00,weatherlink.com 1.10,2013-07-16 10:17:00,
2013-07-16 05:32:00,71.9,69.0,30.12,SE,139,0.0,0.0,90,0.00,,,0.00,weatherlink.com 1.10,2013-07-16 10:32:00,
2013-07-16 05:47:00,71.5,69.0,30.12,SE,139,0.0,1.0,92,0.00,,,0.00,weatherlink.com 1.10,2013-07-16 10:47:00,
2013-07-16 06:02:00,71.2,69.0,30.13,SE,141,0.0,1.0,92,0.00,,,0.00,weatherlink.com 1.10,2013-07-16 11:02:00,
2013-07-16 06:18:00,71.1,69.0,30.14,SE,141,0.0,1.0,93,0.00,,,0.00,weatherlink.com 1.10,2013-07-16 11:18:00,
2013-07-16 06:33:00,71.0,69.0,30.14,SE,139,0.0,0.0,93,0.00,,,0.00,weatherlink.com 1.10,2013-07-16 11:33:00,
2013-07-16 06:48:00,71.2,69.0,30.14,SE,135,0.0,0.0,94,0.00,,,0.00,weatherlink.com 1.10,2013-07-16 11:48:00,
2013-07-16 07:03:00,71.8,70.0,30.15,ESE,121,0.0,0.0,93,0.00,,,0.00,weatherlink.com 1.10,2013-07-16 12:03:00,
2013-07-16 07:18:00,72.5,70.0,30.15,SE,145,0.0,1.0,92,0.00,,,0.00,weatherlink.com 1.10,2013-07-16 12:18:00,
2013-07-16 07:33:00,73.3,70.0,30.15,East,101,0.0,2.0,90,0.00,,,0.00,weatherlink.com 1.10,2013-07-16 12:33:00,
2013-07-16 07:48:00,74.4,71.0,30.16,NE,39,0.0,2.0,88,0.00,,,0.00,weatherlink.com 1.10,2013-07-16 12:48:00,
2013-07-16 08:03:00,75.5,71.0,30.16,East,80,0.0,1.0,86,0.00,,,0.00,weatherlink.com 1.10,2013-07-16 13:03:00,
2013-07-16 08:18:00,76.6,72.0,30.16,East,93,0.0,2.0,84,0.00,,,0.00,weatherlink.com 1.10,2013-07-16 13:18:00,
2013-07-16 08:33:00,78.7,71.0,30.17,South,173,0.0,2.0,78,0.00,,,0.00,weatherlink.com 1.10,2013-07-16 13:33:00,
2013-07-16 08:48:00,80.2,71.0,30.17,SE,141,1.0,2.0,74,0.00,,,0.00,weatherlink.com 1.10,2013-07-16 13:48:00,
2013-07-16 09:03:00,81.6,72.0,30.17,ESE,107,0.0,2.0,73,0.00,,,0.00,weatherlink.com 1.10,2013-07-16 14:03:00,
2013-07-16 09:18:00,82.3,72.0,30.17,SSW,200,0.0,2.0,71,0.00,,,0.00,weatherlink.com 1.10,2013-07-16 14:18:00,
2013-07-16 09:33:00,82.2,72.0,30.18,West,270,1.0,2.0,71,0.00,,,0.00,weatherlink.com 1.10,2013-07-16 14:33:00,
2013-07-16 09:48:00,82.2,72.0,30.17,ESE,121,1.0,3.0,72,0.00,,,0.00,weatherlink.com 1.10,2013-07-16 14:48:00,
2013-07-16 10:03:00,82.6,72.0,30.18,ENE,63,1.0,3.0,71,0.00,,,0.00,weatherlink.com 1.10,2013-07-16 15:03:00,
2013-07-16 10:18:00,82.3,71.0,30.18,WSW,257,0.0,3.0,69,0.00,,,0.00,weatherlink.com 1.10,2013-07-16 15:18:00,
2013-07-16 10:33:00,82.8,72.0,30.17,SW,222,1.0,4.0,69,0.00,,,0.00,weatherlink.com 1.10,2013-07-16 15:33:00,
2013-07-16 10:48:00,83.1,71.0,30.18,SSE,166,2.0,2.0,68,0.00,,,0.00,weatherlink.com 1.10,2013-07-16 15:48:00,
2013-07-16 11:03:00,83.8,72.0,30.18,NNE,15,0.0,2.0,67,0.00,,,0.00,weatherlink.com 1.10,2013-07-16 16:03:00,
2013-07-16 11:18:00,83.0,71.0,30.18,ENE,78,0.0,1.0,68,0.00,,,0.00,weatherlink.com 1.10,2013-07-16 16:18:00,
2013-07-16 11:33:00,84.1,72.0,30.18,NNE,16,0.0,4.0,66,0.00,,,0.00,weatherlink.com 1.10,2013-07-16 16:33:00,
2013-07-16 11:48:00,84.8,73.0,30.18,South,172,1.0,6.0,67,0.00,,,0.00,weatherlink.com 1.10,2013-07-16 16:48:00,
2013-07-16 12:03:00,85.8,72.0,30.17,NNE,19,3.0,3.0,64,0.00,,,0.00,weatherlink.com 1.10,2013-07-16 17:03:00,
2013-07-16 12:18:00,87.0,72.0,30.17,WNW,285,0.0,2.0,62,0.00,,,0.00,weatherlink.com 1.10,2013-07-16 17:18:00,
2013-07-16 12:33:00,86.5,71.0,30.17,ESE,110,0.0,4.0,61,0.00,,,0.00,weatherlink.com 1.10,2013-07-16 17:33:00,
2013-07-16 12:48:00,87.4,74.0,30.17,North,356,1.0,4.0,64,0.00,,,0.00,weatherlink.com 1.10,2013-07-16 17:48:00,
2013-07-16 13:03:00,88.8,73.0,30.16,East,84,4.0,4.0,60,0.00,,,0.00,weatherlink.com 1.10,2013-07-16 18:03:00,
2013-07-16 13:18:00,89.5,72.0,30.16,SW,225,1.0,3.0,57,0.00,,,0.00,weatherlink.com 1.10,2013-07-16 18:18:00,
2013-07-16 13:33:00,91.2,72.0,30.16,SSE,158,0.0,4.0,53,0.00,,,0.00,weatherlink.com 1.10,2013-07-16 18:33:00,
2013-07-16 13:48:00,90.6,71.0,30.15,ESE,108,1.0,4.0,53,0.00,,,0.00,weatherlink.com 1.10,2013-07-16 18:48:00,
2013-07-16 14:03:00,89.7,70.0,30.15,East,85,0.0,3.0,53,0.00,,,0.00,weatherlink.com 1.10,2013-07-16 19:03:00,
2013-07-16 14:18:00,91.3,71.0,30.14,SE,136,1.0,2.0,52,0.00,,,0.00,weatherlink.com 1.10,2013-07-16 19:18:00,
2013-07-16 14:34:00,93.1,73.0,30.14,South,172,2.0,2.0,52,0.00,,,0.00,weatherlink.com 1.10,2013-07-16 19:34:00,
2013-07-16 14:49:00,93.5,72.0,30.14,SW,229,1.0,4.0,50,0.00,,,0.00,weatherlink.com 1.10,2013-07-16 19:49:00,
2013-07-16 15:04:00,93.0,73.0,30.14,SW,228,1.0,4.0,53,0.00,,,0.00,weatherlink.com 1.10,2013-07-16 20:04:00,
2013-07-16 15:19:00,93.0,70.0,30.13,East,79,1.0,5.0,47,0.00,,,0.00,weatherlink.com 1.10,2013-07-16 20:19:00,
2013-07-16 15:34:00,92.2,70.0,30.13,SE,129,1.0,4.0,49,0.00,,,0.00,weatherlink.com 1.10,2013-07-16 20:34:00,
2013-07-16 15:50:00,90.8,70.0,30.12,SW,214,0.0,1.0,50,0.00,,,0.00,weatherlink.com 1.10,2013-07-16 20:50:00,
2013-07-16 16:04:00,92.7,70.0,30.12,East,82,1.0,2.0,48,0.00,,,0.00,weatherlink.com 1.10,2013-07-16 21:04:00,
2013-07-16 16:19:00,91.1,69.0,30.11,NE,34,2.0,5.0,49,0.00,,,0.00,weatherlink.com 1.10,2013-07-16 21:19:00,
2013-07-16 16:34:00,92.4,71.0,30.11,SSW,208,1.0,3.0,50,0.00,,,0.00,weatherlink.com 1.10,2013-07-16 21:34:00,
2013-07-16 16:49:00,93.5,70.0,30.11,ESE,104,1.0,3.0,46,0.00,,,0.00,weatherlink.com 1.10,2013-07-16 21:49:00,
2013-07-16 17:04:00,93.6,69.0,30.11,East,84,2.0,2.0,45,0.00,,,0.00,weatherlink.com 1.10,2013-07-16 22:04:00,
2013-07-16 17:19:00,92.5,69.0,30.11,East,84,1.0,3.0,46,0.00,,,0.00,weatherlink.com 1.10,2013-07-16 22:19:00,
2013-07-16 17:34:00,92.0,70.0,30.12,South,187,2.0,2.0,48,0.00,,,0.00,weatherlink.com 1.10,2013-07-16 22:34:00,
2013-07-16 17:49:00,91.5,69.0,30.12,South,191,2.0,4.0,47,0.00,,,0.00,weatherlink.com 1.10,2013-07-16 22:49:00,
2013-07-16 18:04:00,91.5,68.0,30.12,SSE,166,2.0,3.0,46,0.00,,,0.00,weatherlink.com 1.10,2013-07-16 23:04:00,
2013-07-16 18:19:00,91.3,67.0,30.11,North,349,3.0,5.0,45,0.00,,,0.00,weatherlink.com 1.10,2013-07-16 23:19:00,
2013-07-16 18:34:00,90.8,68.0,30.11,ESE,107,1.0,4.0,47,0.00,,,0.00,weatherlink.com 1.10,2013-07-16 23:34:00,
2013-07-16 18:49:00,90.6,68.0,30.11,SE,131,1.0,3.0,47,0.00,,,0.00,weatherlink.com 1.10,2013-07-16 23:49:00,
2013-07-16 19:04:00,90.8,67.0,30.12,ENE,76,1.0,3.0,46,0.00,,,0.00,weatherlink.com 1.10,2013-07-17 00:04:00,
2013-07-16 19:19:00,91.0,68.0,30.12,SE,142,0.0,2.0,47,0.00,,,0.00,weatherlink.com 1.10,2013-07-17 00:19:00,
2013-07-16 19:34:00,91.1,68.0,30.12,SE,127,1.0,2.0,46,0.00,,,0.00,weatherlink.com 1.10,2013-07-17 00:34:00,
2013-07-16 19:49:00,91.1,68.0,30.12,SE,144,0.0,1.0,47,0.00,,,0.00,weatherlink.com 1.10,2013-07-17 00:49:00,
2013-07-16 20:04:00,89.5,68.0,30.12,ENE,75,0.0,1.0,49,0.00,,,0.00,weatherlink.com 1.10,2013-07-17 01:04:00,
2013-07-16 20:19:00,88.2,68.0,30.12,SE,129,1.0,2.0,51,0.00,,,0.00,weatherlink.com 1.10,2013-07-17 01:19:00,
2013-07-16 20:34:00,87.2,67.0,30.13,SSE,151,0.0,2.0,52,0.00,,,0.00,weatherlink.com 1.10,2013-07-17 01:34:00,
2013-07-16 20:49:00,85.9,68.0,30.13,East,82,0.0,1.0,55,0.00,,,0.00,weatherlink.com 1.10,2013-07-17 01:49:00,
2013-07-16 21:04:00,85.5,68.0,30.13,North,350,1.0,2.0,56,0.00,,,0.00,weatherlink.com 1.10,2013-07-17 02:04:00,
2013-07-16 21:19:00,84.8,68.0,30.14,NNE,24,0.0,1.0,57,0.00,,,0.00,weatherlink.com 1.10,2013-07-17 02:19:00,
2013-07-16 21:34:00,84.0,68.0,30.14,ENE,57,0.0,1.0,59,0.00,,,0.00,weatherlink.com 1.10,2013-07-17 02:34:00,
2013-07-16 21:49:00,83.5,68.0,30.15,ENE,69,0.0,0.0,60,0.00,,,0.00,weatherlink.com 1.10,2013-07-17 02:49:00,
2013-07-16 22:04:00,83.4,68.0,30.16,SE,131,1.0,2.0,60,0.00,,,0.00,weatherlink.com 1.10,2013-07-17 03:04:00,
2013-07-16 22:19:00,83.5,69.0,30.16,East,94,1.0,3.0,62,0.00,,,0.00,weatherlink.com 1.10,2013-07-17 03:19:00,
2013-07-16 22:34:00,82.8,69.0,30.17,SSE,148,1.0,3.0,64,0.00,,,0.00,weatherlink.com 1.10,2013-07-17 03:34:00,
2013-07-16 22:49:00,82.1,70.0,30.17,ESE,104,1.0,3.0,66,0.00,,,0.00,weatherlink.com 1.10,2013-07-17 03:49:00,
2013-07-16 23:04:00,81.6,70.0,30.18,ESE,107,0.0,2.0,67,0.00,,,0.00,weatherlink.com 1.10,2013-07-17 04:04:00,
2013-07-16 23:19:00,81.0,69.0,30.18,SE,134,0.0,1.0,68,0.00,,,0.00,weatherlink.com 1.10,2013-07-17 04:19:00,
2013-07-16 23:34:00,80.1,70.0,30.18,SE,134,0.0,1.0,70,0.00,,,0.00,weatherlink.com 1.10,2013-07-17 04:34:00,
2013-07-16 23:49:00,79.5,70.0,30.18,SE,136,0.0,0.0,72,0.00,,,0.00,weatherlink.com 1.10,2013-07-17 04:49:00,